Centerton, AR (72719)

9:54 PM CST on February 08, 2016 (GMT -0600)
Northwest Centerton | | Change Station
CLOSE
Current Station
Personal Weather Station
Location: Centerton, AR
Elevation: 1358 ft
Nearby Weather Stations

Elev 1358 ft 36.37 °N, 94.30 °W | Updated 3 minutes ago

Clear
Clear
31.3 °F
Feels Like 27 °F
N
4.2
Wind Variable Wind from West

Today
High -- | Low -- °F
--% Chance of Precip.
Yesterday
High -- | Low -- °F
Precip. -- in
Pressure 30.12 in
Visibility 10.0 miles
Clouds Clear
Windchill 27 °F
Dew Point 12 °F
Humidity 45%
Rainfall 0.00 in
Snow Depth Not available.
7:12 AM 5:50 PM
New Moon, 0% visible
METAR KXNA 090253Z 31009KT 10SM CLR 01/M10 A3010 RMK AO2 SLP200 T00061100 51005
Pressure 30.12 in
Visibility 10.0 miles
Clouds Clear
Windchill 27 °F
Dew Point 12 °F
Humidity 45%
Rainfall 0.00 in
Snow Depth Not available.
7:12 AM 5:50 PM
New Moon, 0% visible
METAR KXNA 090253Z 31009KT 10SM CLR 01/M10 A3010 RMK AO2 SLP200 T00061100 51005

10-Day Weather Forecast

Almanac

Astronomy

Feb. 08, 2016 Rise Set
Actual Time
Civil Twilight
Nautical Twilight
Astronomical Twilight
Moon
Length of Visible Light
Length of Day
Tomorrow will be .
, % of the Moon is Illuminated

Today's Extremes

State Highs State Lows

Community

WunderPhotos

Upload Photos

1,891,528 photos uploaded!

WunderBlog® & News

Nearby

Air Quality

  Air Quality AQ Index Pollutant
Not available.

Snow Depth

Station Depth Elevation

Earthquake Activity

City Distance Mag. Time & Date
Minimum magnitude displayed is 2.5.

Coastal Water Temperatures

Place Temperature

Stations

Nearby Weather Stations

Station Location Temp. Windchill Dew Point Humidity Wind Precip. Elev Updated Type
                   

Watches & Warnings

There are currently no watches in effect.